Location: Borgo
(42.3939°N, 9.2791°E)
Time: 20:18:57
(UTC+00:00)

H-2A R/B - Pass Details

Date: 27 February 2020
Orbit: 733 x 837 km, 98.2° (Epoch: 07 April)

Event Time Altitude Azimuth Distance (km) Brightness Sun altitude
Exits shadow 18:23:03 - 144° (SE) 2,882 4.6 -14.3°
Reaches altitude 10° 18:24:16 10° 140° (SE) 2,421 4.2 -14.6°
Maximum altitude 18:29:21 45° 70° (ENE) 1,133 2.5 -15.5°
Drops below altitude 10° 18:34:31 10° 359° (N) 2,461 4.7 -16.5°
Sets 18:36:59 0° 354° (N) 3,399 5.5 -16.9°
